Location: Star Hoppers Observatory
(42.7905°N, 83.6127°W)
Time: 05:25:24
(UTC-04:00)

Amateur Radio Satellites - All Passes

Search period start: 27 June 2016 04:55
Search period end: 28 June 2016 04:55
Location: Star Hoppers Observatory, 42.7905°N, 83.6127°W

Satellite Date Start Highest point End Downlink Frequencies (MHz)
Time Altitude Azimuth
GONETS M04 27 Jun 05:01:05 05:07:15 21° 62° (ENE) 05:13:23
O/OREOS (USA 219) 27 Jun 05:01:30 05:05:28 30° 301° (WNW) 05:09:27 437.305
KKS-1 27 Jun 05:15:25 05:19:22 32° 263° (W) 05:23:21 437.445
AIST 2 27 Jun 05:22:01 05:24:32 16° 110° (ESE) 05:27:03 435.215
STARS 27 Jun 05:52:52 05:56:28 25° 265° (W) 06:00:05 437.465
BEESAT 3 27 Jun 06:00:23 06:01:31 11° 324° (NW) 06:02:39 437.485
PCSat 27 Jun 06:00:54 06:03:05 12° 326° (NW) 06:05:16 145.827
Cosmos 2499 27 Jun 06:09:05 06:17:04 36° 69° (ENE) 06:24:38 435.465 / 435.565
CUBESAT XI-V 27 Jun 06:14:24 06:19:07 79° 257° (WSW) 06:23:50 437.345
NOAA 18 27 Jun 06:23:10 06:24:06 10° 87° (E) 06:25:02 137.9125
ITAMSAT 1 27 Jun 06:28:49 06:30:42 12° 304° (WNW) 06:32:34 435.822/435.867
HORYU 2 27 Jun 06:30:21 06:34:53 75° 104° (ESE) 06:39:22 437.375
AIST 1 27 Jun 06:32:17 06:34:58 16° 274° (W) 06:37:38
AO-7 27 Jun 06:38:05 06:46:00 48° 298° (WNW) 06:53:52 29.400- 29.500
Cubesat XI-IV 27 Jun 06:41:05 06:44:04 15° 90° (E) 06:47:03 437.490
AO-85 27 Jun 06:46:55 06:51:01 30° 45° (NE) 06:54:49 145.980
CUSAT 1 27 Jun 06:48:56 06:51:36 12° 82° (E) 06:54:08 437.405
STRAND 1 27 Jun 06:53:59 06:58:00 24° 64° (ENE) 07:02:02 437.568
GONETS M04 27 Jun 06:56:33 07:05:18 89° 263° (W) 07:14:05
AIST 2 27 Jun 06:58:35 07:02:36 51° 307° (NW) 07:06:39 435.215
LilacSat-2 27 Jun 07:01:47 07:04:31 18° 93° (E) 07:07:15 437.200
CUTE-I 27 Jun 07:14:41 07:19:25 31° 96° (E) 07:24:07 437.470
BRITE-PL 27 Jun 07:46:23 07:50:35 86° 102° (ESE) 07:54:45 437.365/2234.400
NOAA 15 27 Jun 07:48:14 07:53:31 83° 104° (ESE) 07:58:45 137.62
HO-68 27 Jun 07:58:38 08:00:40 11° 86° (E) 08:02:41 435.675
DOVE 4 27 Jun 07:59:47 08:03:18 24° 95° (E) 08:06:57 437.250
NOAA 18 27 Jun 07:59:59 08:05:34 81° 104° (ESE) 08:11:08 137.9125
Cosmos 2499 27 Jun 08:02:02 08:10:31 54° 271° (W) 08:18:32 435.465 / 435.565
HORYU 2 27 Jun 08:08:55 08:10:49 13° 300° (WNW) 08:12:44 437.375
Cubesat XI-IV 27 Jun 08:19:18 08:24:41 73° 287° (WNW) 08:30:03 437.490
CUSAT 1 27 Jun 08:25:02 08:32:50 67° 96° (E) 08:39:30 437.405
PRISM 27 Jun 08:26:33 08:29:59 25° 67° (ENE) 08:33:25 437.425
AO-85 27 Jun 08:27:29 08:31:27 31° 246° (WSW) 08:35:07 145.980
GOMX 1 27 Jun 08:28:28 08:32:39 76° 284° (WNW) 08:36:58 467.674
DANDE 27 Jun 08:31:56 08:39:41 43° 90° (E) 08:47:00 436.750
STRAND 1 27 Jun 08:31:57 08:36:53 46° 261° (W) 08:41:51 437.568
AO-7 27 Jun 08:33:59 08:36:43 12° 320° (NW) 08:39:29 29.400- 29.500
LilacSat-2 27 Jun 08:35:25 08:38:54 33° 289° (WNW) 08:42:24 437.200
PHONESAT 2.4 27 Jun 08:42:19 08:44:57 26° 160° (SSE) 08:47:34 2401.200-2431.200
CANX-2 27 Jun 08:52:56 08:56:32 26° 95° (E) 09:00:06 2200.000
CUTE-I 27 Jun 08:54:35 08:59:29 36° 293° (WNW) 09:04:21 437.470
GONETS M04 27 Jun 08:55:30 09:00:49 18° 283° (WNW) 09:06:10
COMPASS 1 27 Jun 09:02:09 09:04:25 14° 91° (E) 09:06:39 437.405
CINEMA 3 27 Jun 09:06:59 09:11:13 38° 98° (E) 09:15:36 145.822/145.860
CUTE 1.7 + AOD 2 27 Jun 09:12:59 09:16:59 37° 97° (E) 09:20:56 437.475
CUBEBUG 2 27 Jun 09:16:14 09:19:01 16° 91° (E) 09:21:50 437.445
SEEDS 27 Jun 09:20:04 09:23:53 31° 96° (E) 09:27:39 437.485
ISS 27 Jun 09:27:27 09:29:51 19° 134° (SE) 09:32:15 145.825
NOAA 15 27 Jun 09:29:51 09:32:35 14° 302° (WNW) 09:35:18 137.62
DOVE 4 27 Jun 09:37:15 09:41:02 31° 290° (WNW) 09:44:58 437.250
NOAA 18 27 Jun 09:42:15 09:45:32 16° 302° (WNW) 09:48:48 137.9125
HO-68 27 Jun 09:42:23 09:49:36 70° 104° (ESE) 09:56:46 435.675
ZACube-1 27 Jun 09:49:38 09:52:26 16° 91° (E) 09:55:14 437.345
AUBIESAT-1 27 Jun 09:59:42 10:02:31 19° 100° (E) 10:05:27 437.475
PRISM 27 Jun 10:01:37 10:05:12 28° 264° (W) 10:08:48 437.425
Oscar 11 27 Jun 10:02:14 10:05:37 22° 93° (E) 10:08:58 145.826/435.025
Cubesat XI-IV 27 Jun 10:02:21 10:03:48 11° 305° (NW) 10:05:16 437.490
AAUSAT CUBESAT 2 27 Jun 10:03:35 10:07:42 54° 100° (E) 10:11:45 437.432
UWE-3 27 Jun 10:05:57 10:10:09 35° 97° (E) 10:14:24 435.000/436.395/437.385
FUNcube-1 27 Jun 10:07:27 10:11:04 23° 94° (E) 10:14:41 145.935
CUSAT 1 27 Jun 10:09:01 10:15:13 26° 291° (WNW) 10:20:43 437.405
DANDE 27 Jun 10:14:25 10:22:27 47° 286° (WNW) 10:29:58 436.750
TIGRISAT 27 Jun 10:17:34 10:21:06 26° 67° (ENE) 10:24:43 435.000
PHONESAT 2.4 27 Jun 10:18:16 10:21:16 54° 176° (S) 10:24:17 2401.200-2431.200
UNISAT 6 27 Jun 10:21:55 10:25:39 30° 68° (ENE) 10:29:29 437.425
CANX-2 27 Jun 10:28:39 10:32:22 29° 291° (WNW) 10:36:03 2200.000
DELFI C3 27 Jun 10:29:18 10:32:05 18° 93° (E) 10:34:49 145.870
COMPASS 1 27 Jun 10:36:11 10:40:16 50° 287° (WNW) 10:44:18 437.405
M-CUBED/EXP-1 PRIME 27 Jun 10:36:49 10:40:37 59° 106° (ESE) 10:44:43 437.505
CINEMA 3 27 Jun 10:44:38 10:48:09 23° 293° (WNW) 10:51:46 145.822/145.860
CUTE 1.7 + AOD 2 27 Jun 10:49:22 10:52:34 21° 294° (WNW) 10:55:45 437.475
CUBEBUG 2 27 Jun 10:51:27 10:55:55 55° 287° (WNW) 11:00:31 437.445
SEEDS 27 Jun 10:56:02 10:59:25 23° 293° (WNW) 11:02:46 437.485
NANOSAT C BR1 27 Jun 10:56:51 10:58:25 12° 61° (ENE) 11:00:00 145.865
QB50P1 27 Jun 10:58:30 11:00:28 13° 62° (ENE) 11:02:27 145.935-145.965
BEESAT 3 27 Jun 10:59:44 11:01:19 12° 37° (NE) 11:02:54 437.485
ANTELSAT 27 Jun 11:01:08 11:05:25 79° 74° (ENE) 11:09:50 437.575/2403.000
POPSAT HIP 1 27 Jun 11:01:22 11:03:31 14° 63° (ENE) 11:05:40 437.405
ISS 27 Jun 11:02:50 11:06:02 55° 331° (NNW) 11:09:15 145.825
QB50P2 27 Jun 11:12:18 11:15:18 19° 65° (ENE) 11:18:19 145.880/145.840
POLYITAN 1 27 Jun 11:14:53 11:17:55 20° 65° (ENE) 11:20:58 437.675
HUMSAT D 27 Jun 11:15:26 11:19:14 29° 96° (E) 11:23:00 437.325/437.525
DUCHIFAT 1 27 Jun 11:16:43 11:19:34 18° 65° (ENE) 11:22:26 145.980
PCSat 27 Jun 11:17:17 11:21:44 25° 45° (NE) 11:26:10 145.827
ZACube-1 27 Jun 11:24:35 11:29:00 53° 287° (WNW) 11:33:27 437.345
HO-68 27 Jun 11:31:04 11:36:42 26° 303° (WNW) 11:42:20 435.675
AUBIESAT-1 27 Jun 11:33:29 11:37:04 37° 293° (WNW) 11:40:52 437.475
BEESAT 2 27 Jun 11:34:04 11:36:19 14° 39° (NE) 11:38:34 435.950
Oscar 11 27 Jun 11:37:51 11:41:50 35° 290° (WNW) 11:45:47 145.826/435.025
AAUSAT CUBESAT 2 27 Jun 11:40:30 11:42:44 14° 297° (WNW) 11:44:56 437.432
UWE-3 27 Jun 11:42:43 11:46:26 25° 293° (WNW) 11:50:12 435.000/436.395/437.385
FUNcube-1 27 Jun 11:43:14 11:47:23 36° 289° (WNW) 11:51:33 145.935
TIGRISAT 27 Jun 11:53:57 11:57:42 29° 264° (W) 12:01:32 435.000
PHONESAT 2.4 27 Jun 11:54:47 11:57:42 40° 193° (SSW) 12:00:38 2401.200-2431.200
UNISAT 6 27 Jun 11:58:50 12:02:23 25° 266° (W) 12:06:00 437.425
DELFI C3 27 Jun 12:03:23 12:07:03 35° 289° (WNW) 12:10:41 145.870
DANDE 27 Jun 12:06:31 12:07:04 10° 306° (NW) 12:07:36 436.750
YUBILEINY 27 Jun 12:09:09 12:13:57 16° 75° (ENE) 12:18:45 435.215
M-CUBED/EXP-1 PRIME 27 Jun 12:13:01 12:14:50 13° 301° (WNW) 12:16:41 437.505
JAS-2 27 Jun 12:14:43 12:21:16 33° 64° (ENE) 12:27:19 435.910
BUGSAT 1 27 Jun 12:17:52 12:21:33 36° 71° (ENE) 12:25:15 437.445
Cosmos 2491 27 Jun 12:18:02 12:26:27 50° 75° (ENE) 12:34:49 435.465 / 435.565
ESTCUBE 1 27 Jun 12:18:11 12:21:56 25° 95° (E) 12:25:38 437.505/2401.250
RS-15 27 Jun 12:19:41 12:30:17 48° 110° (ESE) 12:41:25 29.354- 29.394
AISAT 27 Jun 12:28:40 12:32:00 21° 94° (E) 12:35:18 437.250
NANOSAT C BR1 27 Jun 12:29:27 12:33:36 68° 258° (WSW) 12:37:47 145.865
QB50P1 27 Jun 12:31:36 12:35:45 61° 259° (W) 12:39:55 145.935-145.965
Oscar 19 27 Jun 12:31:38 12:33:29 12° 57° (ENE) 12:35:20 437.125/150
POPSAT HIP 1 27 Jun 12:34:43 12:38:50 57° 260° (W) 12:42:59 437.405
BEESAT 3 27 Jun 12:35:41 12:39:39 82° 57° (ENE) 12:43:36 437.485
UKube-1 27 Jun 12:37:26 12:39:55 15° 92° (E) 12:42:23 .
ISS 27 Jun 12:40:33 12:43:00 19° 350° (N) 12:45:28 145.825
SPROUT 27 Jun 12:42:29 12:44:06 12° 90° (E) 12:45:43 437.525
QB50P2 27 Jun 12:46:55 12:50:50 38° 262° (W) 12:54:48 145.880/145.840
POLYITAN 1 27 Jun 12:49:34 12:53:28 37° 262° (W) 12:57:24 437.675
DUCHIFAT 1 27 Jun 12:51:02 12:54:58 41° 262° (W) 12:58:56 145.980
HUMSAT D 27 Jun 12:51:09 12:54:45 26° 292° (WNW) 12:58:19 437.325/437.525
DX 1 27 Jun 12:53:36 12:57:20 28° 96° (E) 13:01:02 434.975-435.025
PCSat 27 Jun 13:00:11 13:05:30 58° 245° (WSW) 13:10:47 145.827
50 SAT 27 Jun 13:05:48 13:09:27 56° 100° (E) 13:13:04 437.505
BEESAT 2 27 Jun 13:10:40 13:14:40 77° 238° (WSW) 13:18:38 435.950
CUBEBUG 1 27 Jun 13:19:18 13:23:38 77° 103° (ESE) 13:27:57 437.445
VELOX 1 27 Jun 13:23:33 13:27:58 77° 102° (ESE) 13:32:21 145.980
O/OREOS (USA 219) 27 Jun 13:30:43 13:35:10 62° 65° (ENE) 13:39:37 437.305
PHONESAT 2.4 27 Jun 13:32:11 13:33:52 14° 208° (SSW) 13:35:33 2401.200-2431.200
AIST 2 27 Jun 13:41:28 13:44:19 18° 41° (NE) 13:47:09 435.215
BUGSAT 1 27 Jun 13:54:18 13:57:03 18° 267° (W) 13:59:50 437.445
ESTCUBE 1 27 Jun 13:54:44 13:58:45 32° 291° (WNW) 14:02:44 437.505/2401.250
AO-7 27 Jun 13:57:39 14:01:55 15° 44° (NE) 14:06:12 29.400- 29.500
JAS-2 27 Jun 13:58:27 14:05:59 55° 260° (W) 14:12:55 435.910
YUBILEINY 27 Jun 14:00:34 14:09:16 82° 95° (E) 14:18:04 435.215
AISAT 27 Jun 14:04:32 14:08:35 37° 290° (WNW) 14:12:37 437.250
TISAT 1 27 Jun 14:06:25 14:09:55 25° 95° (E) 14:13:24 437.305
Oscar 19 27 Jun 14:06:50 14:11:59 84° 77° (ENE) 14:17:10 437.125/150
Cosmos 2504 27 Jun 14:07:06 14:13:49 30° 82° (E) 14:20:54 435.465 / 435.565
UKube-1 27 Jun 14:12:04 14:16:15 50° 288° (WNW) 14:20:25 .
Gurwin Techsat 1B 27 Jun 14:12:59 14:17:58 43° 69° (ENE) 14:22:59 435.225
Cosmos 2491 27 Jun 14:15:18 14:23:02 37° 275° (W) 14:30:46 435.465 / 435.565
SPROUT 27 Jun 14:16:13 14:20:27 63° 286° (WNW) 14:24:41 437.525
ISS 27 Jun 14:17:50 14:20:18 19° 10° (N) 14:22:46 145.825
ITAMSAT 1 27 Jun 14:27:43 14:31:43 23° 63° (ENE) 14:35:44 435.822/435.867
DX 1 27 Jun 14:29:46 14:33:28 27° 292° (WNW) 14:37:07 434.975-435.025
RS-15 27 Jun 14:31:14 14:42:31 58° 314° (NW) 14:54:29 29.354- 29.394
50 SAT 27 Jun 14:41:33 14:42:39 11° 297° (WNW) 14:43:45 437.505
CUBEBUG 1 27 Jun 14:58:00 14:59:18 11° 300° (WNW) 15:00:37 437.445
VELOX 1 27 Jun 15:02:17 15:03:49 12° 300° (WNW) 15:05:20 145.980
O/OREOS (USA 219) 27 Jun 15:11:59 15:14:00 13° 262° (W) 15:16:02 437.305
AIST 2 27 Jun 15:19:04 15:23:11 63° 240° (WSW) 15:27:17 435.215
SWISSCUBE 27 Jun 15:30:16 15:34:50 42° 99° (E) 15:39:21 437.505
TISAT 1 27 Jun 15:41:55 15:45:32 29° 292° (WNW) 15:49:09 437.305
AO-7 27 Jun 15:44:53 15:53:00 60° 65° (ENE) 16:01:12 29.400- 29.500
Oscar 19 27 Jun 15:50:07 15:51:57 12° 272° (W) 15:53:46 437.125/150
Gurwin Techsat 1B 27 Jun 15:53:44 15:58:04 25° 266° (W) 16:02:26 435.225
ISS 27 Jun 15:54:01 15:57:16 56° 30° (NNE) 16:00:29 145.825
BEESAT 27 Jun 15:55:34 16:00:22 68° 102° (ESE) 16:05:08 436.000
ITUPSAT 1 27 Jun 15:55:44 16:00:33 67° 103° (ESE) 16:05:19 437.325
Cosmos 2504 27 Jun 15:58:35 16:06:34 61° 283° (WNW) 16:15:09 435.465 / 435.565
YUBILEINY 27 Jun 16:00:40 16:07:10 23° 297° (WNW) 16:13:45 435.215
ITAMSAT 1 27 Jun 16:05:48 16:10:50 49° 260° (W) 16:15:56 435.822/435.867
MOZHAYETS 4 27 Jun 16:46:23 16:50:19 27° 95° (E) 16:54:12
RS-15 27 Jun 16:48:44 16:58:27 28° 345° (NNW) 17:08:28 29.354- 29.394
KKS-1 27 Jun 17:04:55 17:09:11 43° 99° (E) 17:13:25 437.445
SWISSCUBE 27 Jun 17:08:38 17:12:22 23° 296° (WNW) 17:16:04 437.505
SO-50 27 Jun 17:10:09 17:15:02 74° 121° (ESE) 17:19:55 436.795
BRITE-PL 27 Jun 17:22:08 17:24:25 13° 63° (ENE) 17:26:38 437.365/2234.400
AIST 1 27 Jun 17:24:16 17:27:43 24° 89° (E) 17:31:09
HORYU 2 27 Jun 17:28:52 17:33:17 75° 75° (ENE) 17:37:45 437.375
ISS 27 Jun 17:31:04 17:33:27 19° 226° (SW) 17:35:48 145.825
NOAA 15 27 Jun 17:31:19 17:35:06 20° 62° (ENE) 17:38:53 137.62
BEESAT 27 Jun 17:34:53 17:37:35 15° 299° (WNW) 17:40:17 436.000
ITUPSAT 1 27 Jun 17:35:03 17:37:50 15° 299° (WNW) 17:40:36 437.325
AO-7 27 Jun 17:38:58 17:46:10 32° 264° (W) 17:53:27 29.400- 29.500
STARS 27 Jun 17:40:22 17:44:42 52° 101° (E) 17:48:59 437.465
LilacSat-2 27 Jun 17:46:30 17:47:31 11° 63° (ENE) 17:48:32 437.200
NOAA 18 27 Jun 17:48:14 17:52:31 24° 62° (ENE) 17:56:51 137.9125
Cosmos 2504 27 Jun 17:58:48 18:02:09 13° 307° (NW) 18:05:35 435.465 / 435.565
GOMX 1 27 Jun 18:02:00 18:04:10 13° 63° (ENE) 18:06:18 467.674
Cubesat XI-IV 27 Jun 18:03:17 18:07:44 28° 65° (ENE) 18:12:12 437.490
GONETS M04 27 Jun 18:04:54 18:11:00 22° 79° (ENE) 18:17:05
CUBESAT XI-V 27 Jun 18:10:45 18:14:32 24° 94° (E) 18:18:15 437.345
MOZHAYETS 4 27 Jun 18:23:20 18:27:29 32° 291° (WNW) 18:31:34
HO-68 27 Jun 18:29:53 18:32:13 12° 47° (NE) 18:34:33 435.675
CUTE-I 27 Jun 18:37:07 18:42:18 54° 71° (ENE) 18:47:31 437.470
KKS-1 27 Jun 18:42:16 18:45:26 20° 296° (WNW) 18:48:37 437.445
Cosmos 2499 27 Jun 18:47:03 18:53:41 27° 80° (E) 19:00:34 435.465 / 435.565
SO-50 27 Jun 18:52:27 18:56:03 20° 321° (NW) 18:59:37 436.795
BRITE-PL 27 Jun 18:57:17 19:02:24 78° 257° (WSW) 19:07:09 437.365/2234.400
AIST 1 27 Jun 19:01:23 19:05:09 29° 285° (WNW) 19:08:57
CUSAT 1 27 Jun 19:02:01 19:05:27 28° 70° (ENE) 19:08:14 437.405
RS-15 27 Jun 19:05:56 19:16:15 30° 21° (NNE) 19:26:40 29.354- 29.394
DOVE 4 27 Jun 19:06:27 19:10:03 26° 69° (ENE) 19:13:33 437.250
NOAA 15 27 Jun 19:09:13 19:14:25 58° 259° (WSW) 19:19:39 137.62
HORYU 2 27 Jun 19:09:37 19:10:22 10° 271° (W) 19:11:07 437.375
DANDE 27 Jun 19:13:52 19:17:49 21° 62° (ENE) 19:21:01 436.750
LilacSat-2 27 Jun 19:17:34 19:21:18 60° 259° (W) 19:25:05 437.200
STARS 27 Jun 19:17:54 19:20:38 16° 297° (WNW) 19:23:22 437.465
NOAA 18 27 Jun 19:27:33 19:32:51 50° 260° (W) 19:38:11 137.9125
GOMX 1 27 Jun 19:37:12 19:41:50 65° 258° (WSW) 19:46:13 467.674
Cubesat XI-IV 27 Jun 19:42:34 19:47:36 41° 262° (W) 19:52:40 437.490
CANX-2 27 Jun 19:46:44 19:49:59 21° 66° (ENE) 19:53:15 2200.000
CUBESAT XI-V 27 Jun 19:47:46 19:51:58 35° 291° (WNW) 19:56:07 437.345
COMPASS 1 27 Jun 19:54:46 19:56:18 12° 62° (ENE) 19:57:51 437.405
GONETS M04 27 Jun 19:58:02 20:06:46 80° 279° (W) 20:15:31
CUTE 1.7 + AOD 2 27 Jun 20:06:24 20:10:07 29° 69° (ENE) 20:13:51 437.475
CINEMA 3 27 Jun 20:09:51 20:13:37 35° 71° (ENE) 20:17:25 145.822/145.860
HO-68 27 Jun 20:11:28 20:18:24 56° 67° (ENE) 20:25:23 435.675
SEEDS 27 Jun 20:12:39 20:16:09 25° 68° (ENE) 20:19:38 437.485
CUBEBUG 2 27 Jun 20:16:16 20:18:18 13° 62° (ENE) 20:20:22 437.445
CUTE-I 27 Jun 20:18:46 20:22:40 20° 268° (W) 20:26:36 437.470
Cosmos 2499 27 Jun 20:37:44 20:45:59 68° 281° (WNW) 20:54:47 435.465 / 435.565
STRAND 1 27 Jun 20:41:21 20:46:27 56° 101° (E) 20:51:29 437.568
DOVE 4 27 Jun 20:43:59 20:47:42 27° 264° (W) 20:51:19 437.250
CUSAT 1 27 Jun 20:45:27 20:46:57 12° 278° (W) 20:48:20 437.405
AUBIESAT-1 27 Jun 20:47:15 20:49:50 22° 63° (ENE) 20:52:27 437.475
ZACube-1 27 Jun 20:47:15 20:49:19 13° 62° (ENE) 20:51:24 437.345
AAUSAT CUBESAT 2 27 Jun 20:54:21 20:58:15 39° 72° (ENE) 21:02:12 437.432
DANDE 27 Jun 20:56:18 21:00:56 35° 271° (W) 21:04:30 436.750
Oscar 11 27 Jun 20:58:05 21:01:11 19° 65° (ENE) 21:04:18 145.826/435.025
UWE-3 27 Jun 21:04:03 21:07:40 29° 69° (ENE) 21:11:22 435.000/436.395/437.385
FUNcube-1 27 Jun 21:04:22 21:07:20 19° 65° (ENE) 21:10:21 145.935
DELFI C3 27 Jun 21:17:03 21:18:56 13° 63° (ENE) 21:20:51 145.870
RS-15 27 Jun 21:19:21 21:31:40 67° 50° (NE) 21:43:53 29.354- 29.394
CANX-2 27 Jun 21:21:40 21:25:37 36° 263° (W) 21:29:36 2200.000
M-CUBED/EXP-1 PRIME 27 Jun 21:24:56 21:28:12 88° 74° (ENE) 21:31:29 437.505
COMPASS 1 27 Jun 21:27:06 21:31:17 70° 258° (WSW) 21:35:31 437.405
PRISM 27 Jun 21:41:52 21:45:37 34° 98° (E) 21:49:19 437.425
CUTE 1.7 + AOD 2 27 Jun 21:42:24 21:45:56 25° 266° (W) 21:49:31 437.475
CINEMA 3 27 Jun 21:47:55 21:50:54 19° 267° (W) 21:53:55 145.822/145.860
SEEDS 27 Jun 21:48:00 21:51:44 29° 264° (W) 21:55:29 437.485
CUBEBUG 2 27 Jun 21:50:20 21:54:26 58° 260° (W) 21:58:38 437.445
GONETS M04 27 Jun 21:59:47 22:05:08 17° 301° (WNW) 22:10:31
HO-68 27 Jun 22:00:23 22:06:26 29° 265° (W) 22:12:32 435.675
HUMSAT D 27 Jun 22:07:46 22:11:02 23° 67° (ENE) 22:14:22 437.325/437.525
ZACube-1 27 Jun 22:20:57 22:25:05 60° 260° (W) 22:29:20 437.345
STRAND 1 27 Jun 22:21:31 22:25:11 20° 298° (WNW) 22:28:50 437.568
AUBIESAT-1 27 Jun 22:21:48 22:24:18 20° 259° (W) 22:26:50 437.475
AAUSAT CUBESAT 2 27 Jun 22:31:01 22:33:54 18° 268° (W) 22:36:49 437.432
Oscar 11 27 Jun 22:32:55 22:37:01 41° 262° (W) 22:41:10 145.826/435.025
Cosmos 2499 27 Jun 22:36:35 22:41:04 15° 305° (NW) 22:45:39 435.465 / 435.565
FUNcube-1 27 Jun 22:39:21 22:43:16 40° 262° (W) 22:47:20 145.935
AO-85 27 Jun 22:40:28 22:45:51 69° 120° (ESE) 22:51:05 145.980
UWE-3 27 Jun 22:40:42 22:44:07 24° 266° (W) 22:47:38 435.000/436.395/437.385
DELFI C3 27 Jun 22:49:22 22:53:19 56° 260° (W) 22:57:19 145.870
ANTELSAT 27 Jun 22:52:51 22:55:51 17° 91° (E) 22:58:50 437.575/2403.000
PRISM 27 Jun 23:17:41 23:20:42 20° 294° (WNW) 23:23:42 437.425
ESTCUBE 1 27 Jun 23:18:28 23:22:15 26° 67° (ENE) 23:26:02 437.505/2401.250
AISAT 27 Jun 23:26:59 23:30:19 21° 65° (ENE) 23:33:39 437.250
RS-15 27 Jun 23:32:33 23:43:33 41° 253° (WSW) 23:54:27 29.354- 29.394
UKube-1 27 Jun 23:33:07 23:35:37 15° 63° (ENE) 23:38:08 .
SPROUT 27 Jun 23:37:51 23:39:03 11° 61° (ENE) 23:40:15 437.525
HUMSAT D 27 Jun 23:42:46 23:46:30 32° 264° (W) 23:50:18 437.325/437.525
TIGRISAT 27 Jun 23:43:34 23:48:07 51° 100° (E) 23:52:40 435.000
50 SAT 27 Jun 23:44:31 23:47:44 28° 70° (ENE) 23:50:58 437.505
UNISAT 6 27 Jun 23:48:21 23:52:58 61° 101° (E) 23:57:36 437.425
DX 1 27 Jun 23:49:54 23:53:35 27° 67° (ENE) 23:57:16 434.975-435.025
Cosmos 2504 27 Jun 23:59:45 00:03:05 12° 53° (NE) 00:06:22 435.465 / 435.565
SO-50 28 Jun 00:01:49 00:04:33 15° 35° (NE) 00:07:14 436.795
YUBILEINY 28 Jun 00:09:54 00:18:14 43° 72° (ENE) 00:26:30 435.215
NANOSAT C BR1 28 Jun 00:13:52 00:16:48 18° 93° (E) 00:19:42 145.865
CUBEBUG 1 28 Jun 00:15:41 00:20:01 69° 74° (ENE) 00:24:21 437.445
QB50P1 28 Jun 00:16:09 00:19:18 20° 93° (E) 00:22:27 145.935-145.965
POPSAT HIP 1 28 Jun 00:19:11 00:22:27 21° 94° (E) 00:25:43 437.405
VELOX 1 28 Jun 00:21:18 00:25:42 75° 74° (ENE) 00:30:07 145.980
AO-85 28 Jun 00:22:31 00:26:48 23° 318° (NW) 00:30:56 145.980
ANTELSAT 28 Jun 00:28:18 00:32:49 53° 288° (WNW) 00:37:23 437.575/2403.000
QB50P2 28 Jun 00:30:53 00:34:40 30° 96° (E) 00:38:27 145.880/145.840
POLYITAN 1 28 Jun 00:33:29 00:37:18 31° 97° (E) 00:41:07 437.675
DUCHIFAT 1 28 Jun 00:34:19 00:37:58 28° 96° (E) 00:41:37 145.980
ESTCUBE 1 28 Jun 00:54:52 00:58:56 32° 264° (W) 01:03:01 437.505/2401.250
TISAT 1 28 Jun 00:59:10 01:02:20 21° 66° (ENE) 01:05:31 437.305
AISAT 28 Jun 01:02:28 01:06:34 38° 262° (W) 01:10:41 437.250
UKube-1 28 Jun 01:07:01 01:11:14 54° 259° (W) 01:15:29 .
JAS-2 28 Jun 01:09:26 01:13:09 18° 89° (E) 01:16:42 435.910
SPROUT 28 Jun 01:10:08 01:14:22 76° 257° (WSW) 01:18:39 437.525
50 SAT 28 Jun 01:18:41 01:21:26 19° 266° (W) 01:24:12 437.505
Cosmos 2491 28 Jun 01:19:54 01:28:21 55° 90° (E) 01:36:47 435.465 / 435.565
TIGRISAT 28 Jun 01:21:16 01:24:24 18° 296° (WNW) 01:27:35 435.000
DX 1 28 Jun 01:25:57 01:29:42 28° 264° (W) 01:33:27 434.975-435.025
UNISAT 6 28 Jun 01:26:27 01:29:11 16° 297° (WNW) 01:31:58 437.425
BEESAT 28 Jun 01:29:06 01:30:17 11° 58° (ENE) 01:31:29 436.000
ITUPSAT 1 28 Jun 01:29:35 01:30:46 11° 58° (ENE) 01:31:57 437.325
BUGSAT 1 28 Jun 01:33:31 01:37:34 57° 101° (E) 01:41:38 437.445
SO-50 28 Jun 01:41:08 01:45:50 80° 56° (NE) 01:50:22 436.795
NANOSAT C BR1 28 Jun 01:48:42 01:52:42 41° 289° (WNW) 01:56:41 145.865
Cosmos 2504 28 Jun 01:49:58 01:58:45 58° 76° (ENE) 02:07:10 435.465 / 435.565
QB50P1 28 Jun 01:51:17 01:55:11 36° 290° (WNW) 01:59:06 145.935-145.965
POPSAT HIP 1 28 Jun 01:54:27 01:58:19 34° 290° (WNW) 02:02:11 437.405
CUBEBUG 1 28 Jun 01:55:34 01:56:45 11° 271° (W) 01:57:57 437.445
PCSat 28 Jun 02:01:38 02:04:49 16° 104° (ESE) 02:08:01 145.827
VELOX 1 28 Jun 02:01:52 02:02:40 10° 271° (W) 02:03:28 145.980
YUBILEINY 28 Jun 02:06:50 02:15:01 44° 273° (W) 02:23:12 435.215
QB50P2 28 Jun 02:06:53 02:10:21 25° 293° (WNW) 02:13:49 145.880/145.840
POLYITAN 1 28 Jun 02:09:31 02:12:58 24° 293° (WNW) 02:16:25 437.675
DUCHIFAT 1 28 Jun 02:10:03 02:13:35 26° 292° (WNW) 02:17:08 145.980
Oscar 19 28 Jun 02:18:02 02:22:23 27° 95° (E) 02:26:42 437.125/150
Gurwin Techsat 1B 28 Jun 02:29:31 02:32:40 16° 90° (E) 02:35:48 435.225
BEESAT 3 28 Jun 02:30:07 02:30:55 11° 108° (ESE) 02:31:44 437.485
TISAT 1 28 Jun 02:34:01 02:37:47 33° 263° (W) 02:41:36 437.305
SWISSCUBE 28 Jun 02:37:16 02:41:55 53° 72° (ENE) 02:46:36 437.505
JAS-2 28 Jun 02:53:13 02:58:51 58° 289° (WNW) 03:04:00 435.910
BEESAT 28 Jun 03:02:30 03:07:17 85° 75° (ENE) 03:12:06 436.000
ITUPSAT 1 28 Jun 03:03:00 03:07:48 84° 76° (ENE) 03:12:39 437.325
BEESAT 2 28 Jun 03:04:55 03:07:08 15° 110° (ESE) 03:09:21 435.950
BUGSAT 1 28 Jun 03:10:30 03:12:29 13° 297° (WNW) 03:14:29 437.445
Cosmos 2491 28 Jun 03:17:47 03:25:33 34° 291° (WNW) 03:33:20 435.465 / 435.565
SO-50 28 Jun 03:23:57 03:25:35 12° 253° (WSW) 03:27:12 436.795
PCSat 28 Jun 03:42:09 03:47:34 74° 302° (WNW) 03:53:01 145.827
O/OREOS (USA 219) 28 Jun 03:43:35 03:48:02 63° 109° (ESE) 03:52:29 437.305
Cosmos 2504 28 Jun 03:44:02 03:51:39 34° 277° (W) 03:59:02 435.465 / 435.565
AO-7 28 Jun 03:47:26 03:52:25 17° 89° (E) 03:57:22 29.400- 29.500
MOZHAYETS 4 28 Jun 03:48:58 03:52:54 28° 68° (ENE) 03:56:52
Oscar 19 28 Jun 03:57:04 04:01:46 37° 292° (WNW) 04:06:28 437.125/150
KKS-1 28 Jun 04:03:35 04:07:46 44° 71° (ENE) 04:11:59 437.445
BEESAT 3 28 Jun 04:04:07 04:08:01 70° 306° (NW) 04:11:58 437.485
Gurwin Techsat 1B 28 Jun 04:07:49 04:13:07 68° 287° (WNW) 04:18:23 435.225
GONETS M04 28 Jun 04:14:54 04:16:38 11° 52° (NE) 04:18:21
SWISSCUBE 28 Jun 04:16:52 04:20:01 17° 268° (W) 04:23:11 437.505
ITAMSAT 1 28 Jun 04:17:35 04:22:45 55° 101° (E) 04:27:51 435.822/435.867
STARS 28 Jun 04:37:35 04:41:48 51° 72° (ENE) 04:46:02 437.465
Cosmos 2499 28 Jun 04:40:00 04:41:08 10° 50° (NE) 04:42:16 435.465 / 435.565
BEESAT 2 28 Jun 04:40:40 04:44:32 52° 307° (NW) 04:48:28 435.950
BEESAT 28 Jun 04:44:56 04:45:41 10° 272° (W) 04:46:26 436.000
ITUPSAT 1 28 Jun 04:45:17 04:46:15 11° 272° (W) 04:47:14 437.325
